CW0172 Weather Reports


time (UTC)temp
C
wind
direction
speed
KPH
gust
KPH
rain 1hr
cm
rain 24hr
cm
rain mn
cm
humidity
%
barometer
mb
20260506231519 15 238 1.6 6.4 0.00 0.03 0.03 93 1015.3
20260506230018 15 250 0.0 4.8 0.00 0.03 0.03 93 1015.2
20260506224517 15 265 0.0 4.8 0.00 0.03 0.03 93 1015.4
20260506223018 15 263 0.0 4.8 0.00 0.03 0.03 93 1015.1
20260506221514 15 250 0.0 3.2 0.00 0.03 0.03 93 1015.1
20260506220014 15 246 0.0 6.4 0.00 0.03 0.03 93 1015.0
20260506214513 15 247 1.6 9.7 0.00 0.03 0.03 93 1014.6
20260506213013 15 317 0.0 9.7 0.00 0.03 0.03 93 1014.7
20260506211519 15 302 1.6 8.0 0.00 0.03 0.03 93 1014.7
20260506210015 15 36 1.6 11.3 0.00 0.03 0.03 93 1014.5
20260506204509 15 90 0.0 4.8 0.00 0.03 0.03 93 1014.3
20260506203008 15 348 1.6 12.9 0.00 0.03 0.03 93 1014.2
20260506201508 15 290 0.0 9.7 0.00 0.03 0.03 93 1014.2
20260506200005 15 246 1.6 11.3 0.00 0.03 0.03 93 1014.2
20260506194505 15 270 0.0 6.4 0.00 0.03 0.03 93 1014.4
20260506193002 15 310 1.6 4.8 0.00 0.03 0.03 93 1014.7
20260506191600 15 250 1.6 8.0 0.00 0.03 0.03 92 1014.9
20260506184558 15 180 0.0 4.8 0.00 0.03 0.03 92 1015.0
20260506183057 15 117 1.6 4.8 0.00 0.03 0.03 91 1015.0
20260506181558 15 215 1.6 11.3 0.00 0.03 0.03 91 1015.2
20260506180054 15 125 1.6 12.9 0.00 0.03 0.03 90 1015.1
20260506174556 15 275 3.2 11.3 0.00 0.03 0.03 90 1015.4
20260506173124 15 137 1.6 12.9 0.00 0.03 0.03 91 1015.3
20260506171559 15 121 1.6 11.3 0.00 0.03 0.03 91 1015.3
20260506170051 15 181 1.6 12.9 0.00 0.03 0.03 90 1015.4
20260506164556 15 207 3.2 17.7 0.00 0.03 0.03 89 1015.2
20260506163053 15 263 3.2 12.9 0.00 0.03 0.03 89 1015.8
20260506161544 15 152 1.6 14.5 0.00 0.03 0.03 88 1016.4
20260506160040 16 173 1.6 12.9 0.00 0.03 0.03 87 1016.5
20260506154545 16 159 3.2 14.5 0.00 0.03 0.03 85 1016.8
20260506153046 16 171 0.0 4.8 0.00 0.03 0.03 85 1016.5
20260506151537 17 139 1.6 6.4 0.00 0.03 0.03 81 1016.6
20260506150037 17 294 0.0 12.9 0.00 0.03 0.03 78 1016.8
20260506144540 17 128 1.6 16.1 0.00 0.03 0.03 77 1016.7
20260506143037 17 103 3.2 14.5 0.00 0.03 0.03 76 1016.9
20260506141534 17 211 1.6 6.4 0.00 0.03 0.03 77 1016.6
20260506140034 17 229 1.6 8.0 0.00 0.03 0.03 77 1016.6
20260506134533 17 259 1.6 12.9 0.00 0.03 0.03 77 1016.7
20260506133034 17 232 4.8 16.1 0.00 0.03 0.03 76 1016.8
20260506131544 17 273 4.8 11.3 0.00 0.03 0.03 77 1016.9
20260506130042 17 252 3.2 14.5 0.00 0.03 0.03 77 1017.0
20260506124531 17 317 4.8 11.3 0.00 0.03 0.03 78 1016.7
20260506123030 16 190 3.2 9.7 0.00 0.03 0.03 79 1016.5
20260506121528 16 229 1.6 9.7 0.00 0.03 0.03 79 1016.7
20260506120029 16 301 1.6 14.5 0.00 0.03 0.03 79 1016.9
20260506114533 16 150 0.0 16.1 0.00 0.03 0.03 79 1017.0
20260506113026 16 163 1.6 11.3 0.00 0.03 0.03 79 1017.0
20260506111524 16 129 3.2 8.0 0.00 0.03 0.03 80 1017.0
20260506110024 16 296 1.6 12.9 0.00 0.03 0.03 80 1016.9
20260506104555 16 158 1.6 8.0 0.00 0.03 0.03 81 1016.8
20260506103055 16 189 1.6 12.9 0.00 0.03 0.03 81 1016.8
20260506101553 16 298 1.6 11.3 0.00 0.03 0.03 81 1016.7
20260506100100 16 248 1.6 6.4 0.00 0.03 0.03 81 1016.7
20260506094541 16 165 1.6 9.7 0.00 0.03 0.03 81 1016.5
20260506093045 16 109 3.2 12.9 0.00 0.03 0.03 81 1016.5
20260506091540 16 186 4.8 14.5 0.00 0.03 0.03 81 1016.6
20260506090037 16 214 3.2 16.1 0.00 0.03 0.03 81 1016.8
20260506084549 16 194 3.2 12.9 0.00 0.03 0.03 80 1016.8
20260506083035 16 246 3.2 11.3 0.00 0.03 0.03 79 1016.9
20260506081540 16 117 3.2 11.3 0.00 0.03 0.03 79 1016.9
20260506073039 16 134 1.6 8.0 0.00 0.03 0.03 75 1017.0
20260506071526 17 216 1.6 11.3 0.00 0.03 0.03 74 1017.0
20260506061519 17 182 1.6 11.3 0.03 0.03 0.03 70 1017.3
20260506044524 18 189 3.2 9.7 0.00 0.00 0.00 66 1018.1
20260506043009 18 158 1.6 12.9 0.00 0.00 0.00 66 1018.1
20260506041506 18 279 3.2 14.5 0.00 0.00 0.00 65 1018.0
20260506040005 18 222 3.2 12.9 0.00 0.00 0.00 65 1018.0
20260506034503 18 248 3.2 17.7 0.00 0.00 0.00 64 1017.9
20260506033007 18 219 3.2 11.3 0.00 0.00 0.00 63 1018.1
20260506031502 18 264 4.8 14.5 0.00 0.00 0.00 62 1017.9
20260506030100 19 196 3.2 12.9 0.00 0.00 0.00 60 1018.0
20260506024559 20 9 3.2 11.3 0.00 0.00 0.00 59 1017.9
20260506023112 20 340 3.2 17.7 0.00 0.00 0.00 56 1017.9
20260506021559 20 192 3.2 12.9 0.00 0.00 0.00 52 1017.8
20260506020057 21 148 1.6 11.3 0.00 0.00 0.00 50 1017.7
20260506014558 21 126 3.2 12.9 0.00 0.00 0.00 49 1017.7
20260506013058 21 207 3.2 16.1 0.00 0.00 0.00 48 1017.5
20260506011617 21 115 1.6 12.9 0.00 0.00 0.00 48 1017.4
20260506004624 22 304 1.6 11.3 0.00 0.00 0.00 45 1017.1
20260506003109 22 191 3.2 16.1 0.00 0.00 0.00 43 1016.9
20260506001557 22 144 3.2 9.7 0.00 0.00 0.00 41 1016.8
20260506000053 22 105 1.6 11.3 0.00 0.00 0.00 40 1016.7
20260505234620 23 267 1.6 14.5 0.00 0.00 0.00 39 1016.6
20260505233053 23 177 3.2 14.5 0.00 0.00 0.00 38 1016.6